Weather History for Pensacola, FL

Change the Weather History Date:

Thursday, November 22, 2012

  Actual Average Record
Temperature  
Mean Temperature 63 °F 59 °F  
Max Temperature 76 °F 68 °F 81 °F (2011)
Min Temperature 50 °F 49 °F 27 °F (2000)
Degree Days  
Heating Degree Days 2 7  
Month to date heating degree days 113 107  
Since 1 July heating degree days 142 145  
Cooling Degree Days 0 1  
Month to date cooling degree days 25 38  
Year to date cooling degree days 3029 2588  
Growing Degree Days 13 (Base 50)    
Moisture  
Dew Point 49 °F    
Average Humidity 61    
Maximum Humidity 86    
Minimum Humidity 36    
Precipitation  
Precipitation 0.00 in 0.15 in 2.29 in (1929)
Month to date precipitation 0.34 3.49  
Year to date precipitation 63.65 59.48  
Snow  
Snow 0.00 in 0.00 in 0.00 in (2002)
Month to date snowfall 0.0 0.0  
Since 1 July snowfall 0.0 0.0  
Snow Depth 0.00 in    
Sea Level Pressure  
Sea Level Pressure 30.20 in    
Wind  
Wind Speed 4 mph (NNW)    
Max Wind Speed 10 mph    
Max Gust Speed 15 mph    
Visibility 10 miles    
Events      
T = Trace of Precipitation, MM = Missing Value Source: NWS Daily Summary

Daily Weather History Graph

Daily Weather History Graph

Search for Another Location

Airport:

Trip Planner

Search our weather history database for the weather conditions in past years. The results will help you decide how hot, cold, wet, or windy it might be!

Date:

Astronomy

Nov. 22, 2012 Rise Set
Actual Time 6:21 AM CST 4:48 PM CST
Civil Twilight 5:55 AM CST 5:14 PM CST
Nautical Twilight 5:25 AM CST 5:44 PM CST
Astronomical Twilight 4:56 AM CST 6:12 PM CST
Moon 1:15 PM CST (11/22) 1:01 AM CST (11/22)
Length of Visible Light 11h 19m
Length of Day
10h 27m
Waxing Gibbous, 71% of the Moon is Illuminated
Nov 22
Waxing Gibbous
Nov 28
Full
Dec 6
Last Quarter
Dec 13
New
Dec 19
First Quarter

Hourly Weather History & Observations

Time (CST) Temp. Dew Point Humidity Pressure Visibility Wind Dir Wind Speed Gust Speed Precip Events Conditions
12:53 AM 53.1 °F 48.0 °F 83% 30.17 in 8.0 mi NNW 5.8 mph - N/A   Clear
1:53 AM 53.1 °F 48.0 °F 83% 30.16 in 9.0 mi Variable 4.6 mph - N/A   Clear
2:53 AM 53.1 °F 48.0 °F 83% 30.17 in 10.0 mi North 5.8 mph - N/A   Clear
3:53 AM 54.0 °F 48.0 °F 80% 30.17 in 10.0 mi North 3.5 mph - N/A   Clear
4:53 AM 53.1 °F 48.0 °F 83% 30.18 in 10.0 mi North 4.6 mph - N/A   Clear
5:53 AM 53.1 °F 46.9 °F 80% 30.19 in 10.0 mi NNE 5.8 mph - N/A   Clear
6:53 AM 51.1 °F 46.9 °F 86% 30.21 in 7.0 mi North 3.5 mph - N/A   Clear
7:53 AM 60.1 °F 48.9 °F 67% 30.23 in 10.0 mi North 4.6 mph - N/A   Clear
8:53 AM 64.9 °F 46.9 °F 52% 30.24 in 10.0 mi NE 4.6 mph - N/A   Clear
9:53 AM 68.0 °F 48.0 °F 49% 30.25 in 10.0 mi East 4.6 mph - N/A   Clear
10:53 AM 73.0 °F 48.9 °F 42% 30.23 in 10.0 mi North 4.6 mph - N/A   Clear
11:53 AM 73.9 °F 46.9 °F 38% 30.21 in 10.0 mi Calm Calm - N/A   Clear
12:53 PM 75.0 °F 46.9 °F 37% 30.19 in 10.0 mi ENE 4.6 mph - N/A   Clear
1:53 PM 73.9 °F 46.0 °F 37% 30.18 in 10.0 mi SSW 4.6 mph - N/A   Clear
2:53 PM 73.0 °F 46.9 °F 39% 30.17 in 10.0 mi South 9.2 mph - N/A   Clear
3:53 PM 71.1 °F 48.0 °F 44% 30.18 in 10.0 mi SW 8.1 mph - N/A   Clear
4:53 PM 64.9 °F 48.9 °F 56% 30.19 in 10.0 mi SW 4.6 mph - N/A   Clear
5:53 PM 63.0 °F 48.9 °F 60% 30.19 in 10.0 mi SW 4.6 mph - N/A   Clear
6:53 PM 62.1 °F 52.0 °F 70% 30.19 in 10.0 mi SW 3.5 mph - N/A   Clear
7:53 PM 61.0 °F 53.1 °F 75% 30.20 in 10.0 mi West 4.6 mph - N/A   Clear
8:53 PM 60.1 °F 53.1 °F 78% 30.21 in 10.0 mi West 4.6 mph - N/A   Clear
9:53 PM 55.9 °F 52.0 °F 87% 30.21 in 10.0 mi Calm Calm - N/A   Clear
10:53 PM 57.9 °F 53.1 °F 84% 30.21 in 10.0 mi Calm Calm - N/A   Clear
11:53 PM 57.9 °F 51.1 °F 78% 30.21 in 10.0 mi Calm Calm - N/A   Clear